RH
35 26 25 24 19 18 18 19 22 24 26 27 27 30 32 32 33 32 33 34 33 32 32 32 32 31 31 30 29 29 28 27 25 22 19 15 10 7 6 5 4 4 3 3 3 3 3 3 2 2 2 2
30 25 26 23 19 18 19 20 23 25 27 28 29 31 33 33 33 33 34 34 33 32 32 32 31 31 30 30 29 28 27 25 22 19 16 12 8 6 5 4 4 3 3 3 3 3 3 3 2 2 2 2
26 26 26 22 20 19 19 21 24 26 27 29 30 32 33 34 33 34 35 33 32 32 32 31 31 31 30 30 28 27 25 22 19 15 12 9 7 5 4 4 3 3 3 3 3 3 2 2 2 2 2 2
26 27 25 22 20 19 21 23 25 26 28 29 31 34 33 34 34 34 35 33 32 32 32 31 31 31 30 29 27 25 22 19 16 12 9 7 5 4 4 3 3 3 3 3 2 3 2 2 2 2 2 2
27 28 24 22 20 20 23 24 25 26 28 30 32 34 35 35 34 35 35 33 33 32 32 32 31 31 30 28 26 23 19 16 12 10 7 6 5 4 3 3 3 3 3 3 2 2 2 2 2 2 2 2
28 27 23 21 20 22 23 24 26 27 29 30 33 35 35 36 35 36 35 34 34 33 32 31 32 31 30 28 25 21 16 13 10 8 7 5 4 3 3 3 3 3 3 3 2 3 2 2 2 2 2 2
29 26 23 21 21 22 24 25 27 29 30 31 34 35 36 36 35 37 36 35 35 33 33 32 32 32 30 27 24 20 15 12 9 8 7 5 4 3 3 3 3 3 2 3 2 3 2 2 2 2 3 3
28 26 22 22 22 24 25 27 28 30 31 33 35 36 37 36 36 37 37 36 36 34 34 33 33 32 31 28 24 20 16 12 10 8 7 5 4 4 3 3 3 3 3 3 2 3 2 3 3 3 3 3
27 25 22 23 23 25 27 28 30 31 32 33 36 37 37 37 36 37 38 37 37 35 35 34 33 32 31 29 25 22 18 14 10 8 7 5 5 4 4 3 3 3 3 3 2 3 3 3 3 3 3 3
27 25 24 24 24 26 28 30 30 31 33 34 36 38 37 38 37 37 39 38 38 36 35 35 34 33 32 30 27 24 20 16 12 10 8 6 5 4 4 3 3 3 3 3 3 3 3 3 3 3 3 3
27 26 26 26 25 27 29 30 31 32 33 34 37 39 38 38 37 37 39 39 39 38 36 35 35 34 33 31 29 27 23 19 15 12 10 8 6 5 5 4 3 3 3 3 3 3 3 3 3 3 3 3
30 28 28 27 27 29 30 31 32 33 34 35 37 39 40 39 38 37 39 40 40 39 37 36 35 35 33 32 31 29 26 22 19 16 13 11 9 8 6 5 4 3 3 3 3 3 3 3 3 3 3 3
34 32 31 30 30 30 31 32 33 34 35 36 38 40 41 40 39 38 38 40 41 40 39 37 37 35 34 33 32 31 28 25 23 20 17 14 12 11 9 7 5 4 3 3 3 3 3 3 3 3 3 3
39 38 35 33 32 32 32 33 34 35 36 37 38 40 42 41 40 39 38 40 41 41 40 39 38 36 35 34 33 32 30 28 26 23 20 18 16 13 12 10 8 6 4 3 3 3 3 3 3 3 3 3
43 42 40 37 34 33 34 34 35 35 36 38 38 40 42 43 42 40 39 39 41 42 41 41 40 38 37 36 35 33 32 30 28 26 24 21 19 16 15 13 12 10 7 6 5 4 5 4 5 4 4 4
47 45 44 43 39 36 36 36 36 36 36 38 39 40 42 44 43 41 40 40 40 42 42 42 41 40 38 37 36 35 33 32 30 29 27 25 23 20 18 17 15 14 12 10 9 9 9 8 8 8 7 6
54 52 50 48 46 41 38 37 37 37 37 38 40 40 42 45 45 43 42 41 40 41 42 43 43 42 40 39 38 37 35 34 33 30 28 27 25 23 22 20 19 18 16 14 14 13 13 13 12 11 9 8
68 65 59 55 52 47 41 39 39 38 38 39 41 42 42 44 46 45 43 43 42 41 42 43 44 44 43 41 39 39 38 36 35 32 30 28 27 26 24 23 22 21 20 18 17 16 16 15 14 13 13 11
81 74 66 61 57 53 47 42 41 40 40 39 42 43 43 44 46 46 45 44 44 43 42 42 43 44 44 43 41 40 39 38 37 35 33 31 29 29 27 26 25 24 23 21 19 19 18 18 18 18 17 16
79 73 69 64 60 58 53 47 44 42 42 41 42 44 45 45 46 47 47 45 45 45 44 43 43 44 45 45 44 42 41 41 40 38 37 34 32 32 30 29 28 27 26 25 24 22 22 23 23 23 22 21
73 69 67 63 59 59 57 53 49 46 44 43 43 45 46 46 47 47 48 47 47 46 46 45 43 43 44 45 45 44 43 43 42 41 40 38 36 34 33 32 31 31 31 30 29 27 27 27 27 27 26 25
75 68 62 58 56 57 59 57 55 51 47 45 44 45 47 48 48 48 49 50 49 48 47 47 46 44 44 45 46 46 45 45 44 44 43 42 40 38 36 36 34 34 34 34 33 33 32 32 31 31 30 30
77 67 59 55 54 55 57 60 62 61 55 48 46 46 47 49 50 50 50 51 52 50 49 49 49 47 45 44 45 46 47 47 46 46 45 45 43 42 40 39 38 37 37 37 37 37 36 35 35 35 34 34
74 68 64 60 57 53 54 59 65 69 64 55 48 47 48 50 52 53 52 52 54 54 52 51 51 50 48 46 45 45 47 48 47 47 47 47 46 46 44 43 42 41 41 40 39 39 39 39 39 38 38 37
83 79 79 74 66 59 56 58 62 66 67 61 53 48 49 50 52 54 54 54 55 56 56 54 53 53 51 49 48 46 46 47 48 48 48 49 49 49 48 46 45 44 44 43 42 42 41 42 42 41 41 41
95 93 93 90 83 74 66 62 61 61 61 60 55 51 50 51 52 54 55 56 56 57 58 57 55 54 53 52 52 50 47 46 47 48 49 50 50 50 51 50 49 48 47 46 45 45 44 45 44 43 44 45
94 95 96 98 95 87 77 69 66 63 61 58 56 55 54 53 53 54 56 57 57 56 56 58 58 57 57 56 56 54 50 47 47 47 49 50 51 51 52 52 52 51 50 49 48 48 47 47 46 45 46 46
95 97 98 99 98 93 87 80 75 72 69 65 62 60 58 58 57 56 58 60 59 57 56 57 59 61 61 61 59 57 55 53 51 49 48 50 51 52 52 53 53 53 53 52 51 51 50 49 48 48 47 46
99 100 99 101 100 98 98 92 84 80 80 82 81 76 69 65 64 63 62 61 61 60 58 57 58 59 62 63 63 62 61 61 58 54 50 49 50 51 52 53 54 54 54 54 54 53 52 51 50 49 48 47
100 100 98 99 98 98 100 95 90 91 92 95 95 91 85 80 75 72 67 63 61 60 60 59 58 57 59 61 64 65 65 65 63 60 57 54 51 50 51 53 53 54 54 55 55 55 54 54 52 51 50 49
98 99 97 96 95 96 99 97 96 99 98 98 99 96 96 95 91 86 79 73 67 64 62 62 60 59 58 58 60 62 65 66 67 65 63 60 56 53 51 51 52 54 55 55 55 55 56 55 54 54 53 52
Wind_Speed
15 13 12 11 10 10 11 11 11 11 11 12 12 10 10 10 9 8 8 7 6 6 6 6 5 5 5 5 6 6 6 6 6 7 6 6 7 7 7 7 7 7 8 8 9 9 9 9 9 9 8 8
15 14 11 11 11 10 11 11 11 12 12 12 12 11 11 10 9 8 8 7 5 5 5 5 4 4 4 4 6 5 6 5 5 6 6 6 6 7 7 7 7 8 8 8 9 9 9 9 9 9 9 9
16 14 11 11 11 10 11 11 11 12 12 13 13 12 11 11 10 8 8 7 5 4 5 4 4 4 4 4 5 5 5 5 5 5 5 5 6 6 7 7 7 7 8 8 9 9 9 9 9 10 10 10
16 13 11 12 11 10 10 11 12 13 13 13 13 13 12 11 10 8 8 6 4 4 4 4 3 3 3 4 4 4 4 5 4 4 4 5 5 6 6 6 7 7 8 8 9 9 9 9 10 10 10 9
16 13 12 12 11 11 11 12 13 13 14 14 14 14 12 11 10 8 8 5 4 4 4 3 3 3 3 3 3 3 3 4 4 4 4 4 5 5 6 6 7 7 8 8 8 9 9 9 10 10 10 10
15 13 12 12 12 12 12 12 13 13 14 15 15 14 13 12 10 9 8 5 4 4 4 3 2 2 2 3 3 2 2 3 3 3 3 4 4 5 6 6 6 7 7 8 8 9 9 9 10 10 10 10
15 14 12 12 13 13 12 12 12 13 14 15 16 15 14 12 11 9 8 6 4 4 4 4 2 2 2 2 2 2 2 2 3 3 3 3 4 5 6 5 5 6 7 8 8 9 9 10 10 10 10 10
15 14 13 13 13 13 12 12 12 14 15 16 16 16 15 13 11 10 9 6 5 4 4 4 2 2 2 2 2 2 2 2 2 2 3 3 4 4 5 5 5 6 7 8 8 9 9 10 10 10 10 10
16 14 13 13 13 13 13 12 13 14 16 17 17 17 16 14 12 11 9 7 6 5 5 4 3 3 2 2 2 2 2 2 2 2 2 3 3 4 4 4 5 6 7 8 9 9 10 10 10 10 10 10
16 15 14 14 14 14 13 13 14 15 16 18 18 18 17 15 13 12 10 8 7 6 5 4 4 3 3 2 2 2 2 2 2 3 3 3 3 4 4 4 5 6 7 8 9 9 10 10 10 10 10 10
16 16 15 15 14 14 14 14 15 15 16 18 19 19 18 16 14 13 11 10 8 7 6 5 5 4 4 3 3 3 3 3 3 3 3 3 4 4 4 3 4 6 7 8 9 9 10 10 10 10 9 9
16 16 15 15 15 15 15 15 15 15 17 18 19 19 19 17 16 14 12 11 9 8 7 6 5 5 5 4 4 4 3 3 3 3 3 3 4 4 3 3 4 5 7 8 9 9 10 9 9 9 9 9
16 15 15 15 15 16 16 16 16 16 17 19 20 20 20 19 17 16 14 12 11 9 8 7 6 6 5 5 4 4 4 4 4 3 3 3 3 3 3 3 4 5 6 8 9 9 9 9 9 8 8 9
16 16 16 16 17 17 17 17 17 17 17 19 21 21 21 20 19 17 15 13 12 11 10 9 7 6 6 5 5 5 4 4 4 4 4 3 3 3 3 4 4 4 6 7 8 9 8 8 8 8 8 8
16 16 17 17 18 18 18 18 18 18 18 19 21 22 22 21 20 18 17 15 14 12 11 10 9 7 7 6 6 6 5 5 5 5 4 4 4 4 4 4 4 5 5 7 7 8 8 8 7 7 8 8
17 17 17 18 19 19 19 19 20 19 19 20 21 23 23 22 21 20 18 17 15 14 13 12 10 9 8 7 7 6 6 6 6 6 5 5 5 5 5 5 5 5 6 6 7 7 8 7 7 7 7 7
18 18 18 19 20 20 21 21 21 21 21 21 22 23 23 23 23 22 20 18 17 16 14 13 12 10 9 9 8 8 7 7 7 7 7 6 6 6 6 6 6 6 6 7 7 7 7 7 7 7 7 8
18 18 18 19 20 21 22 22 22 22 22 21 22 23 24 24 24 23 22 20 19 17 16 15 14 12 11 10 10 9 9 8 8 8 8 8 7 7 7 7 7 7 7 7 7 8 8 8 8 8 8 8
17 18 18 19 21 22 23 23 23 22 22 22 22 23 24 24 25 24 24 22 21 19 17 16 15 14 13 12 11 11 10 10 10 10 10 9 9 9 8 8 8 8 8 8 8 8 8 9 8 8 8 9
18 19 20 21 22 23 24 24 23 23 23 23 23 23 24 25 25 25 25 24 23 20 19 17 16 16 15 14 13 13 12 12 12 12 11 11 11 10 10 10 10 10 10 9 9 9 10 10 10 10 10 10
19 21 21 22 23 24 25 24 24 24 24 23 23 23 24 24 25 26 26 26 25 22 20 19 18 17 17 17 16 15 14 14 13 13 13 13 13 12 12 12 12 12 11 11 11 11 11 11 11 11 11 11
20 21 22 22 22 24 25 25 25 25 24 24 24 24 24 24 25 26 27 27 26 24 22 20 19 19 19 18 18 17 16 16 15 15 15 15 15 14 14 14 14 14 13 13 13 13 13 13 13 13 13 13
20 20 20 19 19 21 23 25 25 25 25 25 25 24 24 25 25 27 28 28 28 27 24 22 21 20 20 20 20 19 19 18 17 17 17 17 17 17 17 16 16 16 15 15 15 15 15 15 14 14 14 15
17 16 16 16 16 17 19 22 24 25 25 25 25 25 25 25 25 26 28 29 29 28 27 24 22 21 21 21 21 22 21 21 20 20 19 19 19 19 19 19 18 18 17 17 17 17 17 17 16 16 16 17
16 15 14 15 16 16 17 19 21 23 24 25 25 26 26 25 26 27 28 29 29 29 28 27 24 23 22 23 23 23 23 22 22 22 21 21 21 21 21 21 20 20 20 19 19 19 19 19 19 18 18 19
18 16 16 16 17 18 18 18 19 22 23 24 25 25 26 26 27 27 27 28 29 29 29 28 27 26 25 25 25 24 23 24 25 25 24 23 23 23 23 23 23 23 22 21 21 22 22 21 21 20 20 21
21 19 17 18 19 20 21 20 20 21 22 23 24 25 27 28 27 26 26 27 27 28 29 29 30 29 29 28 26 25 25 26 26 26 26 26 26 25 25 25 25 24 24 24 25 25 24 23 23 23 23 23
22 21 21 21 21 22 22 22 21 21 21 22 23 24 26 27 27 26 26 26 27 28 29 31 31 32 31 30 29 28 28 28 27 27 28 28 28 28 27 26 26 26 26 27 26 26 26 25 25 25 24 24
22 24 27 26 24 22 22 23 23 21 20 19 21 23 24 26 27 27 27 27 28 29 30 31 32 33 33 33 33 32 31 30 29 29 29 30 30 29 29 29 28 28 28 28 28 28 28 27 27 26 25 26
24 25 28 30 28 26 23 22 21 20 20 20 21 23 25 26 28 29 29 28 29 29 30 31 32 33 34 35 35 35 34 33 32 31 30 30 30 31 31 32 31 30 30 30 30 29 29 28 28 28 27 28
25 25 26 29 29 27 25 22 20 20 22 22 23 24 25 25 26 28 29 29 30 30 31 32 33 34 35 35 36 36 37 36 35 34 33 33 32 32 33 34 33 32 32 32 31 30 30 30 30 30 30 30
Wind_Direction
231 236 240 247 251 255 262 263 262 258 253 242 233 230 231 235 241 249 256 260 265 276 280 280 281 281 283 280 278 278 275 275 277 275 272 270 264 257 248 239 234 229 223 219 213 208 202 196 192 191 191 195
227 232 237 245 247 251 258 260 259 256 249 238 231 227 228 234 238 244 251 255 260 272 278 279 282 283 284 281 281 281 280 280 278 274 269 265 262 257 249 238 232 226 222 218 214 209 204 199 194 193 195 199
225 228 233 240 244 248 254 257 255 253 245 234 230 228 227 232 237 240 247 252 256 267 274 278 281 279 277 275 277 280 281 282 276 273 269 263 260 254 248 240 233 227 223 218 214 210 206 201 199 199 200 202
223 225 229 237 243 245 248 251 251 249 242 232 228 229 229 233 237 238 242 248 258 266 268 272 272 268 265 262 264 269 275 276 271 268 268 265 259 253 246 243 239 231 226 220 216 212 209 207 204 204 204 205
222 222 226 235 240 239 240 246 250 249 241 232 228 228 227 232 235 236 239 240 257 268 266 264 259 255 252 250 252 254 265 267 263 258 258 259 257 254 247 241 237 231 228 224 220 216 214 214 211 210 208 208
219 219 223 229 233 235 240 246 250 248 241 233 229 228 227 230 232 234 236 230 245 262 264 258 244 247 242 244 250 237 242 249 251 248 245 249 252 253 248 240 237 235 233 230 225 220 218 219 219 217 215 215
214 215 219 224 231 236 240 245 246 244 239 233 230 229 227 229 229 230 232 224 232 247 257 257 240 244 237 243 258 246 234 231 234 237 235 240 246 252 252 247 245 244 241 237 232 227 224 224 224 222 221 222
212 214 217 222 229 234 237 241 241 241 236 231 231 230 228 229 228 227 228 221 223 235 245 250 238 231 225 225 247 253 247 235 231 230 228 233 242 249 252 254 254 253 249 245 240 235 232 229 228 228 228 229
212 213 215 221 227 231 235 237 239 240 236 231 231 231 229 229 229 226 226 222 219 226 232 236 233 223 220 218 225 237 237 234 230 224 221 225 234 242 247 255 261 260 255 249 246 242 240 237 235 234 233 233
212 213 215 219 225 230 232 234 238 241 237 232 231 232 230 229 230 227 226 225 222 224 225 225 226 221 215 220 225 228 225 223 220 217 216 217 226 232 239 251 263 265 260 254 251 247 245 243 240 238 237 237
213 214 216 220 225 229 231 234 238 240 239 234 232 233 232 230 231 228 226 227 225 226 226 222 219 217 209 209 217 220 220 219 217 214 211 214 220 223 229 241 258 264 264 260 256 251 248 245 243 242 241 242
213 215 217 221 226 229 232 234 237 239 239 236 233 233 233 232 232 230 227 228 230 229 230 227 221 216 209 207 209 211 214 216 216 214 213 215 216 217 222 231 250 260 264 263 260 255 251 249 247 246 247 249
211 214 219 222 227 230 232 233 236 238 238 236 233 232 234 234 234 232 228 229 231 232 233 233 228 221 214 209 210 211 212 215 216 215 217 220 218 217 219 224 238 253 261 262 261 258 254 253 252 252 253 254
213 213 218 222 227 230 233 233 235 237 237 237 234 232 234 235 236 235 231 230 232 234 236 237 235 230 222 215 213 213 215 217 218 219 222 224 224 224 225 226 230 242 255 259 260 259 257 255 254 255 256 258
217 213 216 221 227 231 232 233 234 237 238 238 236 234 233 235 237 237 235 232 233 235 236 239 240 237 231 225 220 218 220 221 221 222 225 228 231 235 235 233 230 235 246 254 258 259 259 258 258 261 264 269
220 217 217 220 227 231 232 233 234 236 238 238 237 235 234 235 238 239 238 235 234 235 237 240 242 243 239 234 230 225 226 226 226 226 226 229 234 241 242 239 235 234 240 248 254 257 259 262 264 268 271 275
220 220 220 221 225 229 232 234 234 235 237 239 238 237 235 235 237 240 240 238 237 237 238 241 243 245 245 243 239 234 233 232 233 232 229 230 234 242 246 247 244 240 241 247 252 257 261 264 266 270 272 274
219 222 223 225 227 230 233 234 234 235 237 239 239 239 236 235 237 239 241 241 240 239 239 241 244 246 248 248 246 243 241 240 239 238 235 232 233 239 245 250 251 249 249 250 255 260 264 265 267 270 272 275
224 226 226 228 230 232 234 235 235 235 236 238 240 240 238 236 237 238 241 243 242 242 242 243 245 247 249 250 251 249 248 247 247 245 242 238 236 238 241 248 252 254 255 257 260 262 265 267 269 272 276 278
230 234 234 232 233 234 235 235 235 235 236 238 240 241 239 237 237 239 241 243 244 244 244 245 246 248 250 251 252 252 251 252 253 252 251 247 243 241 242 245 249 253 256 259 262 265 267 269 272 275 277 278
233 238 240 238 237 237 237 237 236 236 237 238 240 242 242 240 239 240 241 243 244 245 245 246 247 248 250 251 252 252 252 253 255 257 257 255 252 248 247 246 248 250 253 257 261 264 267 269 272 274 276 277
234 239 243 243 242 241 239 239 238 237 237 238 240 243 244 243 242 242 242 243 244 245 246 246 247 249 250 251 253 253 253 253 255 257 259 260 258 255 253 251 250 250 251 254 257 260 263 266 269 271 274 275
236 241 245 247 247 246 244 242 241 240 239 238 240 242 244 245 244 244 244 244 244 245 246 247 248 250 251 253 254 254 254 253 253 255 258 260 261 259 257 255 254 253 252 253 254 257 260 262 265 268 271 273
239 244 250 252 253 251 248 246 243 242 242 241 240 242 244 246 246 246 245 244 244 245 246 247 248 251 253 254 255 255 256 255 254 254 256 259 260 260 259 258 257 256 256 255 255 257 258 260 262 265 268 270
239 248 255 258 259 256 253 250 246 243 242 242 242 242 245 247 248 247 246 246 245 246 247 248 249 251 253 254 255 256 257 256 256 256 256 257 258 259 260 259 259 258 258 258 258 258 258 260 262 264 266 268
232 241 251 257 259 258 256 252 247 244 243 243 243 244 245 247 248 248 248 248 248 248 249 250 250 251 252 254 256 258 258 257 257 257 256 256 257 258 259 260 260 259 259 259 259 258 260 262 263 264 266 268
228 233 240 249 255 257 256 252 249 245 244 244 243 245 246 248 251 252 252 251 250 249 249 249 250 250 251 254 257 258 258 257 257 258 258 257 257 256 258 259 260 260 260 260 259 260 262 263 264 264 266 269
237 237 238 242 246 252 255 252 249 248 246 245 246 247 248 251 254 255 254 253 251 249 248 248 249 250 251 253 255 257 257 258 259 259 259 258 258 258 258 259 260 260 260 260 261 262 263 263 264 265 267 268
253 248 244 241 237 241 251 253 250 249 249 248 247 247 247 249 251 252 252 251 250 249 248 249 249 250 251 251 252 254 256 259 259 259 259 260 260 260 259 259 259 259 260 262 263 263 264 264 265 266 266 266
256 253 248 242 234 233 241 250 252 249 249 247 245 243 243 244 247 249 251 251 251 250 250 250 250 250 250 251 252 253 255 257 258 260 260 261 261 260 260 259 259 259 261 262 263 264 265 265 265 266 266 266
251 252 248 242 238 239 238 240 246 247 245 244 245 244 244 246 248 251 253 253 254 253 253 252 252 252 251 251 252 253 254 255 257 258 260 261 261 261 261 260 260 261 261 261 262 264 265 264 265 265 266 267